PDA6019 LBBG-UKBB

Flight info

Callsign PDA6019
Flight time 1h 28m
Altitude 36000
Route XILTI L743 REVDA DCT OSDOR/K0832F380 N617 ODESE T219 TEPLO T219 KONIP
Aircraft A320/M-SDE3FGHIJ4RWY/LB1

Departure

Time 2026-05-06 14:27
Airport Burgas Airport (LBBG)

Arrival

Time 2026-05-06 15:55
Airport Boryspil International Airport (UKBB)
Time Latitude Longitude Altitude Speed Heading
2026-05-06 14:03 42.56653 27.51629 174 ft 0 kts 92°
2026-05-06 14:20 42.56652 27.51613 173 ft 2 kts 106°
2026-05-06 14:20 42.56660 27.51595 173 ft 2 kts 157°
2026-05-06 14:21 42.56676 27.51590 173 ft 2 kts 198°
2026-05-06 14:21 42.56686 27.51596 173 ft 1 kts 225°
2026-05-06 14:21 42.56687 27.51596 173 ft 0 kts 227°
2026-05-06 14:23 42.56681 27.51588 173 ft 5 kts 227°
2026-05-06 14:24 42.56630 27.51511 173 ft 18 kts 228°
2026-05-06 14:24 42.56521 27.51347 173 ft 25 kts 227°
2026-05-06 14:24 42.56406 27.51167 173 ft 16 kts 227°
2026-05-06 14:24 42.56330 27.51053 173 ft 17 kts 226°
2026-05-06 14:25 42.56244 27.50924 173 ft 23 kts 227°
2026-05-06 14:25 42.56126 27.50747 173 ft 27 kts 229°
2026-05-06 14:25 42.55984 27.50534 173 ft 32 kts 227°
2026-05-06 14:25 42.55897 27.50340 173 ft 19 kts 294°
2026-05-06 14:26 42.55969 27.50235 172 ft 15 kts 314°
2026-05-06 14:26 42.56042 27.50241 172 ft 14 kts 45°
2026-05-06 14:26 42.56219 27.50477 173 ft 68 kts 44°
2026-05-06 14:26 42.56692 27.51105 173 ft 120 kts 44°
2026-05-06 14:27 42.57389 27.52038 226 ft 156 kts 46°
2026-05-06 14:27 42.58195 27.53080 715 ft 163 kts 48°
2026-05-06 14:27 42.59013 27.54171 1273 ft 165 kts 47°
2026-05-06 14:27 42.59842 27.55345 1678 ft 177 kts 49°
2026-05-06 14:28 42.60388 27.56841 2178 ft 183 kts 84°
2026-05-06 14:28 42.60333 27.58605 2701 ft 190 kts 87°
2026-05-06 14:28 42.60448 27.60425 3216 ft 198 kts 82°
2026-05-06 14:28 42.60591 27.62340 3709 ft 211 kts 81°
2026-05-06 14:29 42.60746 27.64390 4221 ft 226 kts 81°
2026-05-06 14:29 42.60912 27.66584 4746 ft 241 kts 81°
2026-05-06 14:29 42.61090 27.68932 5257 ft 259 kts 81°
2026-05-06 14:29 42.61272 27.71379 5759 ft 268 kts 81°
2026-05-06 14:30 42.61457 27.73909 6280 ft 271 kts 80°
2026-05-06 14:30 42.61641 27.76471 6768 ft 274 kts 80°
2026-05-06 14:30 42.61826 27.79050 7271 ft 276 kts 81°
2026-05-06 14:30 42.62015 27.81663 7769 ft 279 kts 80°
2026-05-06 14:31 42.62206 27.84296 8298 ft 283 kts 80°
2026-05-06 14:31 42.62401 27.86973 9089 ft 286 kts 80°
2026-05-06 14:31 42.62599 27.89676 9860 ft 290 kts 80°
2026-05-06 14:31 42.62806 27.92463 10268 ft 307 kts 81°
2026-05-06 14:32 42.63029 27.95458 10430 ft 330 kts 81°
2026-05-06 14:32 42.63263 27.98667 10587 ft 351 kts 81°
2026-05-06 14:32 42.63499 28.02012 11062 ft 359 kts 82°
2026-05-06 14:32 42.63733 28.05411 11654 ft 365 kts 82°
2026-05-06 14:33 42.63977 28.08871 12121 ft 372 kts 80°
2026-05-06 14:33 42.64589 28.12272 12801 ft 367 kts 67°
2026-05-06 14:33 42.65663 28.15394 13541 ft 365 kts 56°
2026-05-06 14:33 42.67162 28.18166 14149 ft 364 kts 46°
2026-05-06 14:34 42.68837 28.20766 14699 ft 367 kts 46°
2026-05-06 14:34 42.70498 28.23359 15221 ft 369 kts 46°
2026-05-06 14:34 42.72189 28.26003 15764 ft 372 kts 46°
2026-05-06 14:34 42.73896 28.28671 16308 ft 374 kts 46°
2026-05-06 14:35 42.75613 28.31357 16842 ft 377 kts 46°
2026-05-06 14:35 42.77341 28.34066 17376 ft 380 kts 46°
2026-05-06 14:35 42.79085 28.36799 17905 ft 383 kts 46°
2026-05-06 14:35 42.80843 28.39551 18425 ft 387 kts 46°
2026-05-06 14:36 42.82620 28.42334 18861 ft 391 kts 46°
2026-05-06 14:36 42.84412 28.45147 19341 ft 394 kts 47°
2026-05-06 14:36 42.86200 28.47961 19811 ft 397 kts 47°
2026-05-06 14:36 42.88010 28.50813 20284 ft 399 kts 47°
2026-05-06 14:37 42.89846 28.53712 20747 ft 402 kts 47°
2026-05-06 14:37 42.91664 28.56586 21188 ft 404 kts 47°
2026-05-06 14:37 42.93516 28.59516 21624 ft 407 kts 47°
2026-05-06 14:37 42.95356 28.62426 22047 ft 409 kts 47°
2026-05-06 14:38 42.97224 28.65380 22468 ft 412 kts 47°
2026-05-06 14:38 42.99100 28.68349 22889 ft 414 kts 47°
2026-05-06 14:38 43.00992 28.71348 23287 ft 417 kts 47°
2026-05-06 14:38 43.02895 28.74373 23681 ft 419 kts 47°
2026-05-06 14:39 43.04923 28.77172 23995 ft 419 kts 38°
2026-05-06 14:39 43.07293 28.79495 24313 ft 419 kts 29°
2026-05-06 14:39 43.09923 28.81248 24666 ft 419 kts 20°
2026-05-06 14:39 43.12660 28.82652 24989 ft 421 kts 19°
2026-05-06 14:40 43.15379 28.84056 25321 ft 422 kts 19°
2026-05-06 14:40 43.18148 28.85494 25647 ft 425 kts 20°
2026-05-06 14:40 43.20929 28.86940 25938 ft 428 kts 20°
2026-05-06 14:40 43.23694 28.88377 26251 ft 430 kts 20°
2026-05-06 14:41 43.26514 28.89842 26580 ft 432 kts 20°
2026-05-06 14:41 43.29342 28.91309 26913 ft 433 kts 19°
2026-05-06 14:41 43.32128 28.92755 27410 ft 431 kts 19°
2026-05-06 14:41 43.34941 28.94217 27901 ft 429 kts 19°
2026-05-06 14:42 43.37731 28.95666 28344 ft 429 kts 19°
2026-05-06 14:42 43.40538 28.97123 28749 ft 429 kts 19°
2026-05-06 14:42 43.43330 28.98576 29187 ft 429 kts 19°
2026-05-06 14:42 43.46095 29.00022 29641 ft 428 kts 19°
2026-05-06 14:43 43.48877 29.01479 30112 ft 427 kts 19°
2026-05-06 14:43 43.51660 29.02940 30518 ft 426 kts 19°
2026-05-06 14:43 43.54432 29.04395 30939 ft 425 kts 20°
2026-05-06 14:43 43.57169 29.05829 31364 ft 423 kts 19°
2026-05-06 14:44 43.59930 29.07273 31789 ft 421 kts 19°
2026-05-06 14:44 43.62668 29.08706 32212 ft 420 kts 19°
2026-05-06 14:44 43.65408 29.10143 32621 ft 419 kts 19°
2026-05-06 14:45 43.70817 29.12995 33435 ft 417 kts 19°
2026-05-06 14:45 43.73518 29.14480 33850 ft 417 kts 23°
2026-05-06 14:45 43.76117 29.16310 34209 ft 417 kts 25°
2026-05-06 14:45 43.78671 29.18145 34516 ft 417 kts 25°
2026-05-06 14:46 43.81250 29.19994 34807 ft 417 kts 25°
2026-05-06 14:46 43.83833 29.21840 35097 ft 417 kts 25°
2026-05-06 14:46 43.86416 29.23683 35380 ft 417 kts 25°
2026-05-06 14:46 43.89001 29.25530 35649 ft 416 kts 25°
2026-05-06 14:47 43.91551 29.27354 35931 ft 416 kts 25°
2026-05-06 14:47 43.94129 29.29201 36083 ft 417 kts 25°
2026-05-06 14:47 43.96743 29.31074 36113 ft 423 kts 25°
2026-05-06 14:48 44.02024 29.34857 36111 ft 430 kts 25°
2026-05-06 14:48 44.07325 29.38672 36116 ft 431 kts 26°
2026-05-06 14:49 44.12632 29.42514 36123 ft 431 kts 26°
2026-05-06 14:49 44.17983 29.46389 36108 ft 432 kts 26°
2026-05-06 14:50 44.23311 29.50254 36119 ft 433 kts 26°
2026-05-06 14:50 44.28666 29.54144 36122 ft 433 kts 26°
2026-05-06 14:51 44.33980 29.58018 36118 ft 433 kts 26°
2026-05-06 14:51 44.39318 29.61915 36128 ft 432 kts 26°
2026-05-06 14:52 44.44653 29.65804 36128 ft 432 kts 26°
2026-05-06 14:52 44.49984 29.69717 36128 ft 432 kts 26°
2026-05-06 14:53 44.54410 29.72970 36130 ft 431 kts 26°
2026-05-06 14:53 44.60594 29.77513 36130 ft 431 kts 26°
2026-05-06 14:54 44.65055 29.80795 36127 ft 431 kts 26°
2026-05-06 14:54 44.70331 29.84693 36125 ft 431 kts 27°
2026-05-06 14:55 44.75633 29.88618 36132 ft 431 kts 27°
2026-05-06 14:55 44.80938 29.92555 36121 ft 430 kts 27°
2026-05-06 14:56 44.86219 29.96475 36118 ft 430 kts 27°
2026-05-06 14:56 44.91526 30.00432 36114 ft 430 kts 27°
2026-05-06 14:57 44.96816 30.04383 36121 ft 430 kts 25°
2026-05-06 14:57 45.02392 30.07399 36119 ft 428 kts 19°
2026-05-06 14:58 45.07982 30.10216 36114 ft 428 kts 19°
2026-05-06 14:58 45.13602 30.13060 36100 ft 429 kts 19°
2026-05-06 14:59 45.19241 30.15923 36103 ft 430 kts 19°
2026-05-06 14:59 45.24853 30.18780 36096 ft 431 kts 19°
2026-05-06 15:00 45.30508 30.21659 36103 ft 431 kts 19°
2026-05-06 15:00 45.36140 30.24542 36102 ft 430 kts 19°
2026-05-06 15:01 45.41776 30.27429 36100 ft 430 kts 19°
2026-05-06 15:01 45.47423 30.30327 36097 ft 431 kts 19°
2026-05-06 15:02 45.53030 30.33215 36093 ft 430 kts 19°
2026-05-06 15:02 45.58689 30.36127 36096 ft 431 kts 19°
2026-05-06 15:03 45.64334 30.39048 36097 ft 431 kts 19°
2026-05-06 15:03 45.69950 30.41959 36097 ft 432 kts 19°
2026-05-06 15:04 45.75603 30.44885 36103 ft 432 kts 19°
2026-05-06 15:04 45.81271 30.47800 36084 ft 432 kts 19°
2026-05-06 15:05 45.86928 30.50627 36084 ft 432 kts 19°
2026-05-06 15:05 45.92591 30.53452 36080 ft 432 kts 19°
2026-05-06 15:06 45.98287 30.56318 36083 ft 433 kts 19°
2026-05-06 15:06 46.04094 30.58411 36080 ft 433 kts
2026-05-06 15:07 46.10071 30.59718 36077 ft 433 kts
2026-05-06 15:07 46.16019 30.61038 36090 ft 434 kts
2026-05-06 15:08 46.22001 30.62369 36089 ft 434 kts
2026-05-06 15:08 46.27933 30.63688 36078 ft 433 kts
2026-05-06 15:09 46.33908 30.65022 36061 ft 433 kts
2026-05-06 15:09 46.39879 30.66351 36059 ft 434 kts
2026-05-06 15:10 46.45821 30.67631 36048 ft 435 kts
2026-05-06 15:10 46.51846 30.68729 36056 ft 435 kts
2026-05-06 15:11 46.57831 30.69765 36058 ft 435 kts
2026-05-06 15:11 46.63860 30.70855 36059 ft 435 kts
2026-05-06 15:12 46.69847 30.71969 36044 ft 436 kts
2026-05-06 15:12 46.75870 30.73092 36045 ft 436 kts
2026-05-06 15:13 46.81906 30.74222 36029 ft 436 kts
2026-05-06 15:13 46.87928 30.75338 36017 ft 437 kts
2026-05-06 15:14 46.93928 30.76457 36015 ft 438 kts
2026-05-06 15:14 46.99993 30.77592 36020 ft 438 kts
2026-05-06 15:15 47.06054 30.78725 36018 ft 439 kts
2026-05-06 15:15 47.12115 30.79862 36028 ft 439 kts
2026-05-06 15:16 47.18158 30.81002 36031 ft 439 kts
2026-05-06 15:16 47.24224 30.82155 36029 ft 439 kts
2026-05-06 15:16 47.27258 30.82735 35897 ft 439 kts
2026-05-06 15:17 47.30330 30.83316 35363 ft 441 kts
2026-05-06 15:17 47.33305 30.83873 35878 ft 424 kts
2026-05-06 15:17 47.36212 30.84418 36465 ft 417 kts
2026-05-06 15:17 47.39061 30.84954 37059 ft 409 kts
2026-05-06 15:18 47.41851 30.85481 37676 ft 400 kts
2026-05-06 15:18 47.47479 30.86550 37185 ft 423 kts
2026-05-06 15:18 47.50435 30.87114 36650 ft 433 kts
2026-05-06 15:19 47.53439 30.87690 36155 ft 437 kts
2026-05-06 15:19 47.56458 30.88272 35964 ft 438 kts
2026-05-06 15:19 47.59476 30.88852 36013 ft 440 kts
2026-05-06 15:20 47.65517 30.90014 35999 ft 441 kts
2026-05-06 15:20 47.71560 30.91180 36002 ft 441 kts
2026-05-06 15:21 47.77635 30.92309 35994 ft 440 kts
2026-05-06 15:21 47.83739 30.92680 35999 ft 439 kts
2026-05-06 15:22 47.89850 30.92875 36006 ft 439 kts
2026-05-06 15:22 47.95957 30.93064 36003 ft 439 kts
2026-05-06 15:23 48.02067 30.93289 36001 ft 439 kts
2026-05-06 15:23 48.08167 30.93538 36000 ft 439 kts
2026-05-06 15:24 48.14278 30.93791 36007 ft 439 kts
2026-05-06 15:24 48.20381 30.94046 35999 ft 439 kts
2026-05-06 15:25 48.26499 30.94289 35996 ft 439 kts
2026-05-06 15:25 48.32616 30.94526 36000 ft 440 kts
2026-05-06 15:26 48.38737 30.94770 35996 ft 440 kts
2026-05-06 15:26 48.44861 30.95024 36000 ft 440 kts
2026-05-06 15:27 48.50987 30.95273 35996 ft 441 kts
2026-05-06 15:27 48.57119 30.95512 35998 ft 441 kts
2026-05-06 15:28 48.63214 30.95753 35984 ft 441 kts
2026-05-06 15:28 48.69339 30.96004 35996 ft 440 kts
2026-05-06 15:29 48.75461 30.96250 35995 ft 440 kts
2026-05-06 15:29 48.81575 30.96497 35994 ft 440 kts
2026-05-06 15:30 48.87702 30.96760 35986 ft 440 kts
2026-05-06 15:30 48.93817 30.97016 35991 ft 440 kts
2026-05-06 15:31 48.99936 30.97254 35991 ft 439 kts
2026-05-06 15:31 49.06050 30.97500 35970 ft 439 kts
2026-05-06 15:32 49.15222 30.97892 35968 ft 439 kts
2026-05-06 15:32 49.18272 30.98023 35531 ft 438 kts
2026-05-06 15:32 49.21304 30.98150 35032 ft 438 kts
2026-05-06 15:33 49.24349 30.98273 34426 ft 438 kts
2026-05-06 15:33 49.27396 30.98392 33809 ft 438 kts
2026-05-06 15:33 49.29419 30.98472 33346 ft 439 kts
2026-05-06 15:33 49.33467 30.98636 32459 ft 439 kts
2026-05-06 15:34 49.36525 30.98763 31812 ft 441 kts
2026-05-06 15:34 49.39603 30.98894 31169 ft 443 kts
2026-05-06 15:34 49.42690 30.99025 30546 ft 445 kts
2026-05-06 15:34 49.45789 30.99156 29921 ft 447 kts
2026-05-06 15:35 49.48905 30.99287 29192 ft 449 kts
2026-05-06 15:35 49.52037 30.99423 28494 ft 451 kts
2026-05-06 15:35 49.55174 30.99557 27812 ft 452 kts
2026-05-06 15:35 49.58319 30.99691 27225 ft 453 kts
2026-05-06 15:36 49.61480 30.99822 26704 ft 453 kts
2026-05-06 15:36 49.64621 30.99952 26193 ft 450 kts
2026-05-06 15:36 49.67745 31.00083 25683 ft 446 kts
2026-05-06 15:36 49.70838 31.00217 25184 ft 443 kts
2026-05-06 15:37 49.73920 31.00352 24705 ft 442 kts
2026-05-06 15:37 49.76986 31.00483 24226 ft 439 kts
2026-05-06 15:37 49.80024 31.00610 23756 ft 436 kts
2026-05-06 15:37 49.83046 31.00736 23249 ft 434 kts
2026-05-06 15:38 49.86061 31.00863 22702 ft 431 kts
2026-05-06 15:38 49.89053 31.00989 22158 ft 427 kts
2026-05-06 15:38 49.92010 31.01115 21632 ft 425 kts
2026-05-06 15:38 49.94957 31.01244 21112 ft 423 kts
2026-05-06 15:39 49.97894 31.01372 20605 ft 422 kts
2026-05-06 15:39 50.00820 31.01494 20107 ft 419 kts
2026-05-06 15:39 50.03722 31.01619 19600 ft 416 kts
2026-05-06 15:39 50.06613 31.01748 19101 ft 414 kts
2026-05-06 15:40 50.09480 31.01872 18501 ft 411 kts
2026-05-06 15:40 50.12320 31.01993 17875 ft 407 kts
2026-05-06 15:40 50.15144 31.02115 17211 ft 404 kts
2026-05-06 15:40 50.17037 31.02197 16767 ft 402 kts
2026-05-06 15:41 50.19825 31.02317 16126 ft 399 kts
2026-05-06 15:41 50.22589 31.02437 15501 ft 396 kts
2026-05-06 15:41 50.25334 31.02554 14888 ft 393 kts
2026-05-06 15:41 50.28020 31.02669 14282 ft 390 kts
2026-05-06 15:42 50.30724 31.02785 13675 ft 386 kts
2026-05-06 15:42 50.33398 31.02900 13023 ft 383 kts
2026-05-06 15:42 50.36046 31.03015 12375 ft 379 kts
2026-05-06 15:42 50.38666 31.03131 11738 ft 375 kts
2026-05-06 15:43 50.41266 31.03246 11110 ft 372 kts
2026-05-06 15:43 50.43822 31.03360 10488 ft 360 kts
2026-05-06 15:43 50.46278 31.03471 9892 ft 345 kts 360°
2026-05-06 15:43 50.48636 31.03577 9255 ft 334 kts
2026-05-06 15:44 50.50929 31.03717 8616 ft 325 kts
2026-05-06 15:44 50.53158 31.03883 7988 ft 318 kts
2026-05-06 15:44 50.55344 31.04058 7367 ft 311 kts
2026-05-06 15:44 50.57483 31.04231 6836 ft 303 kts
2026-05-06 15:45 50.59549 31.04396 6479 ft 291 kts
2026-05-06 15:45 50.61536 31.04554 6114 ft 280 kts
2026-05-06 15:45 50.63453 31.04705 5741 ft 271 kts
2026-05-06 15:45 50.65315 31.04849 5363 ft 264 kts
2026-05-06 15:46 50.67123 31.04985 5009 ft 256 kts
2026-05-06 15:46 50.68852 31.05116 4836 ft 241 kts
2026-05-06 15:46 50.70478 31.05241 4671 ft 228 kts
2026-05-06 15:46 50.72026 31.05064 4487 ft 220 kts 340°
2026-05-06 15:47 50.73339 31.03926 4309 ft 214 kts 311°
2026-05-06 15:47 50.74031 31.01930 4138 ft 209 kts 277°
2026-05-06 15:47 50.73842 30.99711 3966 ft 206 kts 242°
2026-05-06 15:47 50.73022 30.97864 3792 ft 207 kts 230°
2026-05-06 15:48 50.72084 30.96144 3640 ft 206 kts 229°
2026-05-06 15:48 50.71107 30.94473 3573 ft 208 kts 221°
2026-05-06 15:48 50.69861 30.93343 3496 ft 209 kts 198°
2026-05-06 15:48 50.68415 30.93036 3431 ft 211 kts 185°
2026-05-06 15:49 50.66944 30.92932 3353 ft 212 kts 185°
2026-05-06 15:49 50.65474 30.92825 3293 ft 212 kts 185°
2026-05-06 15:49 50.64009 30.92717 3216 ft 211 kts 185°
2026-05-06 15:49 50.62559 30.92609 3130 ft 211 kts 184°
2026-05-06 15:50 50.61075 30.92498 3040 ft 210 kts 184°
2026-05-06 15:50 50.59615 30.92390 2980 ft 209 kts 184°
2026-05-06 15:50 50.58181 30.92284 2983 ft 210 kts 184°
2026-05-06 15:50 50.56722 30.92175 2987 ft 210 kts 185°
2026-05-06 15:51 50.55263 30.92067 2989 ft 210 kts 184°
2026-05-06 15:51 50.53802 30.91958 2986 ft 211 kts 185°
2026-05-06 15:51 50.52333 30.91850 2991 ft 211 kts 185°
2026-05-06 15:51 50.50903 30.91745 2985 ft 202 kts 185°
2026-05-06 15:52 50.49512 30.91642 2909 ft 198 kts 184°
2026-05-06 15:52 50.48143 30.91540 2718 ft 193 kts 185°
2026-05-06 15:52 50.46845 30.91445 2471 ft 181 kts 185°
2026-05-06 15:52 50.45628 30.91355 2252 ft 170 kts 184°
2026-05-06 15:53 50.44479 30.91270 2028 ft 161 kts 184°
2026-05-06 15:53 50.43389 30.91189 1840 ft 151 kts 184°
2026-05-06 15:53 50.42373 30.91114 1650 ft 143 kts 185°
2026-05-06 15:53 50.41388 30.91041 1457 ft 141 kts 184°
2026-05-06 15:54 50.40412 30.90969 1279 ft 140 kts 186°
2026-05-06 15:54 50.39446 30.90898 1101 ft 137 kts 185°
2026-05-06 15:54 50.38491 30.90827 922 ft 141 kts 183°
2026-05-06 15:54 50.37522 30.90751 759 ft 138 kts 185°
2026-05-06 15:55 50.36549 30.90685 570 ft 140 kts 183°
2026-05-06 15:55 50.35591 30.90613 421 ft 131 kts 184°
2026-05-06 15:55 50.34830 30.90557 417 ft 85 kts 182°
2026-05-06 15:55 50.34409 30.90527 416 ft 36 kts 182°
2026-05-06 15:56 50.34185 30.90437 419 ft 29 kts 207°
2026-05-06 15:56 50.34024 30.90273 417 ft 28 kts 214°
2026-05-06 15:56 50.33866 30.90163 411 ft 23 kts 180°
2026-05-06 15:56 50.33715 30.90151 415 ft 22 kts 183°
2026-05-06 15:57 50.33565 30.90140 413 ft 21 kts 183°
2026-05-06 15:57 50.33495 30.90039 412 ft 5 kts 273°
2026-05-06 15:57 50.33496 30.90016 412 ft 0 kts 273°
2026-05-06 15:57 50.33496 30.90013 413 ft 1 kts 273°
2026-05-06 15:58 50.33497 30.89972 411 ft 6 kts 273°
2026-05-06 15:58 50.33521 30.89923 411 ft 7 kts 354°
2026-05-06 15:58 50.33564 30.89929 413 ft 1 kts
2026-05-06 15:58 50.33566 30.89929 414 ft 0 kts